Location: Beekmeers
(50.8953°N, 3.6968°E)
Time: 20:51:01
(UTC+00:00)

Cosmos 1908 Rocket - Pass Details

Date: 23 May 2024
Orbit: 602 x 628 km, 82.5° (Epoch: 14 June)

Event Time Altitude Azimuth Distance (km) Brightness Sun altitude
Rises 01:50:36 0° 342° (NNW) 2,923 7.7 -13.1°
Reaches altitude 10° 01:53:01 10° 333° (NNW) 2,007 6.6 -12.9°
Maximum altitude 01:56:58 32° 270° (W) 1,066 4.5 -12.5°
Enters shadow 01:59:28 18° 219° (SW) 1,508 4.9 -12.3°
